2022-057AK (52765 NORAD) Tracking and Keplerian Element Data

This shows tracking and keplerian element data for the satellite.

Feedback or suggestion? Click here.




ElementValue
Catalog52765
Name2022-057AK
Epoch Orbit712
Epoch Day192.82985202
Epoch Year2022
RAAN307.2411
Inclination97.5242
Eccentricity0.0014728
Argument of Perigee70.6233
Mean Anonmoly289.6589
Mean Motion15.13440398
Decay Rate3.675E-05
L11 52765U 22057AK 22192.82985202 .00003675 00000+0 20883-3 0 9997
L22 52765 97.5242 307.2411 0014728 70.6233 289.6589 15.13440398 7122

Live tracking and technical data element details for 2022-057AK (NORAD 52765). 2022-057AK can be tracked NOW for your location showing map with azimuth and elevation plus other details from your city location.

Track the satellite on the map from your city or location and see movement details for azimuth, elevation, latitude, longitude, range, height, and movement on the map or in text.







IsCatalogInMostPopularTable: catalog: 52765, numindb: 3
Update: records affected: 1



GetName: 52765 2022-057AK

Hit Count: updated at: Sun, 14 Aug 2022 00:21:41 GMT